This demonstration page uses our WeatherBlox Daily Observations layout. Learn more.

Left ArrowRight Arrow

53.62937, 11.41316

Hourly Observations for July 3, 2018

Temp ( °F °C ) Dew Point ( °F °C ) Humidity (%) Winds ( mph kmh ) Pressure ( in mb ) Visibility ( mi km ) Precip ( " mm )
6:50 am 06:50 Mostly Sunny 57 14 48 9 72 72 SW 2 4 30.03 1017 7 11 N/A
7:20 am 07:20 Mostly Sunny 59 15 50 10 72 72 SW 5 7 30.03 1017 7 11 N/A
7:50 am 07:50 Mostly Sunny 61 16 50 10 68 68 SW 5 7 30.03 1017 7 11 N/A
8:20 am 08:20 Mostly Sunny 64 18 52 11 64 64 SW 5 7 30.03 1017 7 11 N/A
8:50 am 08:50 Mostly Sunny 66 19 52 11 60 60 WSW 6 9 30.03 1017 7 11 N/A
9:20 am 09:20 Mostly Sunny 68 20 54 12 60 60 WSW 5 7 30.03 1017 7 11 N/A
9:50 am 09:50 Mostly Sunny 70 21 54 12 57 57 WSW 7 11 30.03 1017 7 11 N/A
10:20 am 10:20 Mostly Sunny 70 21 50 10 50 50 SW 8 13 30.03 1017 7 11 N/A
10:50 am 10:50 Mostly Sunny 72 22 50 10 47 47 SW 8 13 30.03 1017 7 11 N/A
11:20 am 11:20 Mostly Sunny 73 23 48 9 41 41 WSW 7 11 30.03 1017 7 11 N/A
11:50 am 11:50 Mostly Sunny 73 23 46 8 38 38 VRB 7 11 30.03 1017 7 11 N/A
12:20 pm 12:20 Mostly Sunny 75 24 43 6 31 31 WSW 9 15 30.03 1017 7 11 N/A
12:50 pm 12:50 Mostly Sunny 75 24 45 7 34 34 WSW 9 15 30.03 1017 7 11 N/A
1:20 pm 13:20 Mostly Sunny 77 25 41 5 28 28 WSW 7 11 30.00 1016 7 11 N/A
1:50 pm 13:50 Mostly Sunny 77 25 43 6 30 30 WSW 8 13 30.00 1016 7 11 N/A
2:20 pm 14:20 Mostly Sunny 77 25 45 7 32 32 WSW 9 15 30.00 1016 7 11 N/A
2:50 pm 14:50 Mostly Sunny 77 25 43 6 30 30 VRB 9 15 30.00 1016 7 11 N/A
3:20 pm 15:20 Mostly Sunny 77 25 45 7 32 32 WSW 9 15 30.00 1016 7 11 N/A
3:50 pm 15:50 Mostly Sunny 75 24 46 8 36 36 WSW 7 11 30.00 1016 7 11 N/A
4:20 pm 16:20 Mostly Sunny 75 24 50 10 41 41 WSW 5 7 30.00 1016 7 11 N/A
4:50 pm 16:50 Mostly Sunny 77 25 50 10 39 39 VRB 2 4 30.00 1016 7 11 N/A
5:20 pm 17:20 Mostly Sunny 77 25 52 11 42 42 VRB 2 4 29.97 1015 7 11 N/A
5:50 pm 17:50 Mostly Sunny 77 25 52 11 42 42 VRB 3 6 29.97 1015 7 11 N/A
6:20 pm 18:20 Mostly Sunny 79 26 50 10 37 37 VRB 5 7 29.97 1015 7 11 N/A
6:50 pm 18:50 Mostly Sunny 77 25 46 8 34 34 WSW 8 13 29.97 1015 7 11 N/A
7:20 pm 19:20 Mostly Sunny 73 23 48 9 41 41 W 6 9 29.97 1015 7 11 N/A
7:50 pm 19:50 Mostly Sunny 72 22 48 9 44 44 WSW 3 6 29.97 1015 7 11 N/A
8:20 pm 20:20 Mostly Sunny 73 23 46 8 38 38 W 3 6 29.97 1015 7 11 N/A
8:50 pm 20:50 Mostly Sunny 72 22 46 8 41 41 WSW 3 6 29.97 1015 7 11 N/A
9:20 pm 21:20 Mostly Sunny 68 20 48 9 49 49 WSW 2 4 29.97 1015 7 11 N/A
9:50 pm 21:50 Mostly Sunny 66 19 48 9 52 52 VRB 2 4 30.00 1016 7 11 N/A
10:20 pm 22:20 Mostly Clear 63 17 48 9 59 59 VRB 1 2 30.00 1016 7 11 N/A
10:50 pm 22:50 Mostly Clear 61 16 50 10 68 68 WSW 2 4 30.00 1016 7 11 N/A
11:20 pm 23:20 Mostly Clear 59 15 50 10 72 72 WSW 2 4 30.00 1016 7 11 N/A

Powered by AerisWeather